Location: Unspecified
(50.3848°N, 0.0000°E)
Time: 11:41:53
(UTC+00:00)

SO-50 - Visible Passes

Search period start: 04 April 2026 00:00
Search period end: 14 April 2026 00:00
Orbit: 568 x 673 km, 64.6° (Epoch: 29 March)

Date Brightness Start Highest point End Pass type
(mag) Time Alt. Az. Time Alt. Az. Time Alt. Az.
4 Apr ? 19:16:39 10° NNW 19:21:03 34° NE 19:25:23 10° E visible
4 Apr ? 20:56:35 10° NW 21:01:16 55° SW 21:02:33 41° S visible
5 Apr ? 19:34:13 10° NW 19:38:56 53° NE 19:42:50 14° ESE visible
5 Apr ? 21:14:32 10° WNW 21:18:43 30° WSW 21:20:00 26° SSW visible
6 Apr ? 19:51:50 10° NW 19:56:41 87° NE 20:00:20 17° SE visible
6 Apr ? 21:32:59 10° WNW 21:36:01 17° WSW 21:37:30 15° SW visible
7 Apr ? 20:09:35 10° NW 20:14:16 54° WSW 20:17:54 16° SSE visible
8 Apr ? 20:27:33 10° WNW 20:31:42 30° WSW 20:35:31 11° S visible
9 Apr ? 20:46:01 10° WNW 20:48:59 16° WSW 20:51:54 10° SSW visible
10 Apr ? 19:22:34 10° NW 19:27:14 52° WSW 19:31:48 10° SSE visible
11 Apr ? 19:40:32 10° WNW 19:44:39 29° WSW 19:48:41 10° S visible
12 Apr ? 19:59:01 10° WNW 20:01:54 16° WSW 20:04:45 10° SSW visible
